Weather History for Samos, Greece

Change the Weather History Date:

Saturday, November 17, 2012

  Actual Average Record
Temperature  
Mean Temperature 65 °F -  
Max Temperature 68 °F 61 °F 71 °F (1999)
Min Temperature 62 °F 49 °F 46 °F (2001)
Growing Degree Days 15 (Base 50)    
Moisture  
Dew Point 54 °F    
Average Humidity 66    
Maximum Humidity 82    
Minimum Humidity 48    
Precipitation  
Precipitation 0.00 in 0.18 in - ()
Sea Level Pressure  
Sea Level Pressure 29.97 in    
Wind  
Wind Speed 5 mph ()    
Max Wind Speed 12 mph    
Max Gust Speed -    
Visibility 6.2 miles    
Events      
Averages and records for this station are not official NWS values.
T = Trace of Precipitation, MM = Missing Value Source: Averaged Metar Reports

Daily Weather History Graph

Daily Weather History Graph

Search for Another Location

Airport:

Trip Planner

Search our weather history database for the weather conditions in past years. The results will help you decide how hot, cold, wet, or windy it might be!

Date:

Astronomy

Nov. 17, 2012 Rise Set
Actual Time 6:54 AM EET 4:59 PM EET
Civil Twilight 6:26 AM EET 5:27 PM EET
Nautical Twilight 5:54 AM EET 5:59 PM EET
Astronomical Twilight 5:23 AM EET 6:30 PM EET
Moon 10:23 AM EET (11/17) 8:46 PM EET (11/17)
Length of Visible Light 11h 01m
Length of Day
10h 04m
Waxing Crescent, 17% of the Moon is Illuminated
Nov 17
Waxing Crescent
Nov 20
First Quarter
Nov 28
Full
Dec 6
Last Quarter
Dec 13
New

Hourly Weather History & Observations

Time (EET) Temp. Dew Point Humidity Pressure Visibility Wind Dir Wind Speed Gust Speed Precip Events Conditions
4:50 AM 64.4 °F 57.2 °F 77% 29.98 in 6.2 mi Calm Calm - N/A   Scattered Clouds
5:20 AM 64.4 °F 57.2 °F 77% 29.98 in 6.2 mi Calm Calm - N/A   Scattered Clouds
5:50 AM 64.4 °F 57.2 °F 77% 29.98 in 6.2 mi North 8.1 mph - N/A   Scattered Clouds
6:20 AM 64.4 °F 57.2 °F 77% 29.98 in 6.2 mi NNE 8.1 mph - N/A   Mostly Cloudy
6:50 AM 62.6 °F 57.2 °F 82% 29.98 in 6.2 mi Calm Calm - N/A   Mostly Cloudy
7:20 AM 62.6 °F 57.2 °F 82% 29.98 in 6.2 mi Calm Calm - N/A   Mostly Cloudy
7:50 AM 62.6 °F 53.6 °F 72% 29.98 in 6.2 mi North 6.9 mph - N/A   Mostly Cloudy
8:00 AM 63 °F 54 °F 66% 30.00 in 6 mi North 6.9 mph - -   Scattered Clouds
8:20 AM 62.6 °F 53.6 °F 72% 29.98 in 6.2 mi North 6.9 mph - N/A   Mostly Cloudy
8:50 AM 64.4 °F 53.6 °F 68% 30.01 in 6.2 mi Variable 5.8 mph - N/A   Mostly Cloudy
9:20 AM 64.4 °F 53.6 °F 68% 30.01 in 6.2 mi North 8.1 mph - N/A   Mostly Cloudy
9:50 AM 66.2 °F 53.6 °F 64% 30.01 in 6.2 mi North 8.1 mph - N/A   Mostly Cloudy
10:20 AM 66.2 °F 51.8 °F 60% 30.01 in - NNE 9.2 mph - N/A   Clear
10:50 AM 66.2 °F 51.8 °F 60% 30.01 in 6.2 mi NE 8.1 mph - N/A   Mostly Cloudy
11:20 AM 66.2 °F 51.8 °F 60% 29.98 in 6.2 mi NNE 8.1 mph - N/A   Mostly Cloudy
11:50 AM 66.2 °F 53.6 °F 64% 29.98 in 6.2 mi North 9.2 mph - N/A   Mostly Cloudy
12:20 PM 68.0 °F 53.6 °F 60% 29.98 in 6.2 mi North 8.1 mph - N/A   Mostly Cloudy
12:50 PM 68.0 °F 53.6 °F 60% 29.98 in 6.2 mi North 6.9 mph - N/A   Mostly Cloudy
1:20 PM 68.0 °F 53.6 °F 60% 29.95 in 6.2 mi North 6.9 mph - N/A   Mostly Cloudy
1:50 PM 68.0 °F 53.6 °F 60% 29.95 in 6.2 mi North 8.1 mph - N/A   Mostly Cloudy
2:00 PM 68 °F 53 °F 48% 29.97 in 6 mi North 8.1 mph - -   Scattered Clouds
2:20 PM 68.0 °F 53.6 °F 60% 29.95 in 6.2 mi North 9.2 mph - N/A   Mostly Cloudy
2:50 PM 68.0 °F 53.6 °F 60% 29.95 in 6.2 mi North 8.1 mph - N/A   Mostly Cloudy
3:20 PM 68.0 °F 53.6 °F 60% 29.95 in 6.2 mi North 9.2 mph - N/A   Mostly Cloudy
3:50 PM 68.0 °F 51.8 °F 56% 29.92 in 6.2 mi NNE 5.8 mph - N/A   Mostly Cloudy
4:20 PM 66.2 °F 51.8 °F 60% 29.92 in 6.2 mi NNE 5.8 mph - N/A   Mostly Cloudy
4:50 PM 66.2 °F 53.6 °F 64% 29.92 in 6.2 mi NNE 11.5 mph - N/A   Mostly Cloudy
5:20 PM 66.2 °F 53.6 °F 64% 29.92 in 6.2 mi NNE 11.5 mph - N/A   Mostly Cloudy
5:50 PM 64.4 °F 53.6 °F 68% 29.92 in 6.2 mi NNE 11.5 mph - N/A   Mostly Cloudy
6:20 PM 64.4 °F 53.6 °F 68% 29.92 in 6.2 mi Calm Calm - N/A   Mostly Cloudy
6:50 PM 64.4 °F 55.4 °F 73% 29.95 in 6.2 mi North 5.8 mph - N/A   Mostly Cloudy
7:20 PM 64.4 °F 53.6 °F 68% 29.92 in 6.2 mi NNE 8.1 mph - N/A   Mostly Cloudy
7:50 PM 62.6 °F 51.8 °F 68% 29.95 in 6.2 mi NNE 11.5 mph - N/A   Mostly Cloudy
8:00 PM 63 °F 52 °F 59% 29.95 in 6 mi NNE 11.5 mph - -   Partly Cloudy